McNeal, AZ

12:24 PM MST on July 26, 2016 (GMT -0700)
Bisbee Douglas International

Weather History for KDUG - March, 2012

Change the Weather History Date:

Sunday, March 11, 2012

  Actual Average Record
Temperature  
Mean Temperature 49 °F 54 °F  
Max Temperature 73 °F 71 °F 92 °F (1989)
Min Temperature 25 °F 36 °F 24 °F (1974)
Degree Days  
Heating Degree Days 16 11  
Month to date heating degree days 171 133  
Since 1 July heating degree days 1858 2169  
Cooling Degree Days 0 0  
Month to date cooling degree days 0 0  
Year to date cooling degree days 0 0  
Moisture  
Dew Point 13 °F    
Average Humidity 32    
Maximum Humidity 55    
Minimum Humidity 8    
Precipitation  
Precipitation 0.00 in 0.02 in 0.58 in (2004)
Month to date precipitation 0.00 0.21  
Year to date precipitation 0.23 1.60  
Snow  
Snow 0.00 in - - ()
Month to date snowfall 0.0  
Snow Depth 0.00 in    
Sea Level Pressure  
Sea Level Pressure 30.01 in    
Wind  
Wind Speed 5 mph (WSW)    
Max Wind Speed 16 mph    
Max Gust Speed 22 mph    
Visibility 10 miles    
Events      
T = Trace of Precipitation, MM = Missing Value Source: NWS Daily Summary

Daily Weather History Graph

Daily Weather History Graph

Search for Another Location

Airport or City:

Trip Planner

Search our weather history database for the weather conditions in past years. The results will help you decide how hot, cold, wet, or windy it might be!

Date:

Astronomy

Mar. 11, 2012 Rise Set
Actual Time 6:32 AM MST 6:24 PM MST
Civil Twilight 6:08 AM MST 6:48 PM MST
Nautical Twilight 5:40 AM MST 7:16 PM MST
Astronomical Twilight 5:12 AM MST 7:44 PM MST
Moon 10:30 PM MST (3/11) 8:29 AM MST (3/11)
Length of Visible Light 12h 39m
Length of Day
11h 51m
Waning Gibbous, 84% of the Moon is Illuminated
Mar 11
Waning Gibbous
Mar 14
Last Quarter
Mar 22
New
Mar 30
First Quarter
Apr 6
Full

Hourly Weather History & Observations

Time (MST) Temp. Windchill Dew Point Humidity Pressure Visibility Wind Dir Wind Speed Gust Speed Precip Events Conditions
12:56 AM 35.1 °F 30.1 °F 19.0 °F 52% 30.04 in 10.0 mi East 5.8 mph - N/A   Clear
1:56 AM 37.0 °F 33.3 °F 19.0 °F 48% 30.03 in 10.0 mi ESE 4.6 mph - N/A   Clear
2:56 AM 33.1 °F - 16.0 °F 50% 30.03 in 10.0 mi Calm Calm - N/A   Clear
3:56 AM 28.0 °F - 12.0 °F 51% 30.04 in 10.0 mi Calm Calm - N/A   Clear
5:56 AM 26.1 °F 20.5 °F 12.9 °F 58% 30.06 in 10.0 mi SW 4.6 mph - N/A   Clear
6:56 AM 27.0 °F 21.6 °F 12.9 °F 56% 30.08 in 10.0 mi East 4.6 mph - N/A   Clear
7:56 AM 37.9 °F - 19.9 °F 48% 30.07 in 10.0 mi Calm Calm - N/A   Clear
8:56 AM 46.9 °F - 21.9 °F 37% 30.07 in 10.0 mi Calm Calm - N/A   Clear
9:56 AM 53.1 °F - 21.9 °F 30% 30.07 in 10.0 mi South 6.9 mph - N/A   Clear
10:56 AM 57.9 °F - 19.0 °F 22% 30.06 in 10.0 mi Calm Calm - N/A   Clear
11:56 AM 61.0 °F - 19.0 °F 20% 30.04 in 10.0 mi Calm Calm - N/A   Clear
12:56 PM 64.9 °F - 17.1 °F 16% 30.00 in 10.0 mi SSE 6.9 mph - N/A   Clear
1:56 PM 66.0 °F - 15.1 °F 14% 29.95 in 10.0 mi Calm Calm - N/A   Clear
2:56 PM 71.6 °F - 10.4 °F 9% 30.02 in 10.0 mi SSW 8.1 mph - N/A   Clear
3:56 PM 72.0 °F - 9.0 °F 9% 29.92 in 10.0 mi Variable 5.8 mph - N/A   Clear
4:56 PM 72.0 °F - 6.1 °F 8% 29.91 in 10.0 mi WSW 12.7 mph 19.6 mph N/A   Clear
5:56 PM 70.0 °F - 6.1 °F 8% 29.94 in 10.0 mi WSW 10.4 mph - N/A   Clear
6:56 PM 61.0 °F - 6.1 °F 11% 29.97 in 10.0 mi NW 8.1 mph - N/A   Clear
7:56 PM 57.0 °F - 7.0 °F 14% 29.97 in 10.0 mi WNW 11.5 mph - N/A   Clear
8:56 PM 53.1 °F - 9.0 °F 17% 29.98 in 10.0 mi NNW 5.8 mph - N/A   Clear
9:56 PM 50.0 °F - 10.9 °F 21% 29.98 in 10.0 mi North 9.2 mph - N/A   Clear
10:56 PM 46.9 °F - 10.0 °F 22% 29.97 in 10.0 mi ENE 5.8 mph - N/A   Clear
11:56 PM 43.0 °F 40.3 °F 9.0 °F 25% 29.98 in 10.0 mi West 4.6 mph - N/A   Clear